Retour au catalogue

USA 435

ActifMilitaireVLEO
NORAD 61658·PAYLOAD·🇺🇸 United States

Lancé Oct 24, 2024 depuis Vandenberg Space Force Base

Loading…

Prochains Passages (prochaines 24 heures)

TLE

PériméSource: Mike McCants

Époque: Aug 10, 2026, 20:00 UTC

1 61658U 24192Q   26222.83363339 0.00000000  00000-0  00000-0 0    09
2 61658  70.0172 114.9541 0003000 347.9661  12.0338 14.96713501    03

Suivez USA 435 en temps réel avec AllMySat

Download on the App Store